< Cyclone 198410 1984 Season Cyclone 198412 >
Cyclone 198411 (WILLY)
General InformationTrack Information on Google MapsDetailed Wind InformationList of All Images || ResourceGoogle EarthGE AnimationAtom FeedGeoJSON
Detalied Best Track (Time Zone = UTC)
Year Month Day Hour Lat. Long. Pressure (hPa) Wind (kt) Class Image Chart
1984 2 2 00 -11.4 114.5 1004 25 2 Image --
1984 2 2 06 -11.4 113.1 1004 25 2 Image --
1984 2 2 12 -11.1 111.8 1004 25 2 Image --
1984 2 2 18 -10.6 110.8 1005 25 2 Image --
1984 2 3 00 -10.0 110.5 1005 25 2 Image --
1984 2 3 06 -9.6 110.6 1004 25 2 Image --
1984 2 3 12 -9.5 111.4 1004 25 2 Image --
1984 2 3 18 -9.6 112.0 1004 25 2 Image --
1984 2 4 00 -9.7 112.4 1002 25 2 Image --
1984 2 4 06 -9.7 112.5 1002 25 2 Image --
1984 2 4 12 -9.9 112.8 1001 25 2 Image --
1984 2 4 18 -10.0 113.0 1001 25 2 Image --
1984 2 5 00 -10.1 113.1 1000 25 2 Image --
1984 2 5 06 -10.3 113.4 999 30 2 Image --
1984 2 5 12 -10.6 113.8 998 30 2 Image --
1984 2 5 18 -11.4 113.6 996 30 2 Image --
1984 2 6 00 -12.1 113.0 994 35 3 Image --
1984 2 6 06 -12.8 111.6 992 35 3 Image --
1984 2 6 12 -13.3 110.8 990 40 3 Image --
1984 2 6 18 -13.6 110.3 985 50 4 Image --
1984 2 7 00 -14.2 109.4 980 55 4 Image --
1984 2 7 06 -14.8 108.5 975 60 4 Image --
1984 2 7 12 -15.2 107.7 970 65 5 Image --
1984 2 7 18 -15.7 106.8 970 70 5 Image --
1984 2 8 00 -16.5 105.8 965 75 5 Image --
1984 2 8 06 -16.9 104.9 960 80 5 Image --
1984 2 8 12 -17.4 103.7 964 80 5 Image --
1984 2 8 18 -17.6 102.4 964 80 5 Image --
1984 2 9 00 -18.2 101.2 970 65 5 Image --
1984 2 9 06 -19.6 99.0 980 55 4 Image --
1984 2 9 12 -20.0 97.0 994 40 3 Image --
1984 2 9 16 -20.1 96.0 996 35 3 Image --
1984 2 9 18 -21.0 94.9 1000 30 2 Image --
1984 2 10 00 -23.9 93.0 1002 25 2 Image --
1984 2 10 06 -25.8 92.2 1002 25 2 Image --
1984 2 10 12 -27.7 92.5 1004 25 2 Image --
1984 2 10 18 -28.6 91.9 1008 20 2 Image --
1984 2 11 00 -29.2 90.9 1008 20 2 Image --
< Cyclone 198410 1984 Season Cyclone 198412 >

Help